Location: Newark
(49.5647°N, 8.2922°E)
Time: 12:45:41
(UTC+00:00)

Transit 2A - Pass Details

Date: 24 February 2020
Orbit: 597 x 961 km, 66.7° (Epoch: 30 March)

Event Time Altitude Azimuth Distance (km) Brightness Sun altitude
Rises 14:32:39 0° 271° (W) 2,849 9.6 19.9°
Reaches altitude 10° 14:35:36 10° 293° (WNW) 1,972 8.5 19.6°
Maximum altitude 14:38:27 17° 333° (NNW) 1,621 7.6 19.3°
Drops below altitude 10° 14:41:24 10° 13° (NNE) 2,061 7.8 18.9°
Sets 14:44:36 0° 35° (NE) 3,041 8.5 18.5°
